KI4RPM Weather Reports


time (UTC)temp
C
wind
direction
speed
KPH
gust
KPH
rain 1hr
cm
rain 24hr
cm
rain mn
cm
humidity
%
barometer
mb
20260505063817 10 111 0.0 0.0 0.00 0.00 0.00 85
20260505063315 10 112 0.0 0.0 0.00 0.00 0.00 85
20260505063022 10 112 0.0 0.0 0.00 0.00 0.00 85 1084.4
20260505062841 10 112 0.0 0.0 0.00 0.00 0.00 84
20260505062322 10 112 0.0 0.0 0.00 0.00 0.00 85
20260505061824 11 112 0.0 0.0 0.00 0.00 0.00 84
20260505061555 10 112 0.0 0.0 0.00 0.00 0.00 84 1084.4
20260505061320 11 112 0.0 0.0 0.00 0.00 0.00 83 318.8
20260505060826 11 111 0.0 0.0 0.00 0.00 0.00 82 1055.4
20260505060406 11 112 0.0 0.0 0.00 0.00 0.00 82
20260505060033 11 112 0.0 0.0 0.00 0.00 0.00 81 1084.4
20260505055817 11 112 0.0 0.0 0.00 0.00 0.00 81 260.4
20260505055320 11 112 0.0 0.0 0.00 0.00 0.00 81
20260505054846 11 112 0.0 0.0 0.00 0.00 0.00 80
20260505054549 11 112 0.0 0.0 0.00 0.00 0.00 80 1084.4
20260505054335 11 111 0.0 0.0 0.00 0.00 0.00 80 707.5
20260505053841 11 111 0.0 0.0 0.00 0.00 0.00 80
20260505053317 11 112 0.0 0.0 0.00 0.00 0.00 81 252.1
20260505053012 11 111 0.0 0.0 0.00 0.00 0.00 81 1084.4
20260505052903 11 112 0.0 0.0 0.00 0.00 0.00 81 1.0
20260505052314 11 112 0.0 0.0 0.00 0.00 0.00 81
20260505051817 11 112 0.0 0.0 0.00 0.00 0.00 81
20260505051558 11 111 0.0 0.0 0.00 0.00 0.00 81 1084.4
20260505051315 11 111 0.0 0.0 0.00 0.00 0.00 82
20260505050823 11 112 0.0 0.0 0.00 0.00 0.00 83 484.7
20260505050344 11 112 0.0 0.0 0.00 0.00 0.00 83 668.6
20260505041508 12 112 0.0 0.0 0.00 0.00 0.00 79 1084.4
20260505041317 12 111 0.0 0.0 0.00 0.00 0.00 79 968.8
20260505040822 12 112 0.0 0.0 0.00 0.00 0.00 79 484.1
20260505040326 13 112 0.0 0.0 0.00 0.00 0.00 79 497.1
20260505040048 12 112 0.0 0.0 0.00 0.00 0.00 78 1084.4
20260505035832 13 111 0.0 0.0 0.00 0.00 0.00 78 310.8
20260505035330 13 111 0.0 0.0 0.00 0.00 0.00 77 277.8
20260505034815 13 112 0.0 0.0 0.00 0.00 0.00 76 206.6
20260505034543 13 112 0.0 0.0 0.00 0.00 0.00 75 1084.4
20260505034343 13 112 0.0 0.0 0.00 0.00 0.00 76 271.5
20260505033817 13 112 0.0 0.0 0.00 0.00 0.00 72 282.9
20260505033350 14 111 0.0 0.0 0.00 0.00 0.00 71
20260505033030 13 112 0.0 0.0 0.00 0.00 0.00 70 1084.4
20260505032837 14 112 0.0 0.0 0.00 0.00 0.00 70 426.2
20260505032318 14 112 0.0 0.0 0.00 0.00 0.00 70
20260505031842 15 112 0.0 0.0 0.00 0.00 0.00 69
20260505031558 15 111 0.0 0.0 0.00 0.00 0.00 69 1084.4
20260505031345 15 112 0.0 0.0 0.00 0.00 0.00 68
20260505030819 15 111 0.0 0.0 0.00 0.00 0.00 67 220.9
20260505030355 16 111 0.0 0.0 0.00 0.00 0.00 64 571.6
20260505025834 16 112 0.0 0.0 0.00 0.00 0.00 63
20260505025330 16 111 0.0 0.0 0.00 0.00 0.00 62
20260505024836 16 112 0.0 0.0 0.00 0.00 0.00 59 254.2
20260505024501 16 112 0.0 0.0 0.00 0.00 0.00 59 1084.4
20260505024337 17 112 0.0 0.0 0.00 0.00 0.00 59 164.4
20260505023843 17 112 0.0 0.0 0.00 0.00 0.00 58 16.1
20260505023334 17 112 0.0 0.0 0.00 0.00 0.00 57 170.9
20260505023037 17 112 0.0 0.0 0.00 0.00 0.00 55 1084.4
20260505022826 17 112 0.0 0.0 0.00 0.00 0.00 55
20260505022334 18 112 0.0 0.0 0.00 0.00 0.00 55 -107.2
20260505021857 18 111 0.0 0.0 0.00 0.00 0.00 54 772.3
20260505021557 18 111 0.0 0.0 0.00 0.00 0.00 53 1084.4
20260505021319 18 112 0.0 0.0 0.00 0.00 0.00 53 1101.4
20260505020819 19 112 0.0 0.0 0.00 0.00 0.00 53
20260505020322 19 112 0.0 0.0 0.00 0.00 0.00 51 205.4
20260505020016 18 112 0.0 0.0 0.00 0.00 0.00 51 1084.4
20260505015829 19 112 0.0 0.0 0.00 0.00 0.00 51
20260505015337 19 112 0.0 0.0 0.00 0.00 0.00 51
20260505014820 19 112 0.0 0.0 0.00 0.00 0.00 51
20260505014520 18 111 0.0 0.0 0.00 0.00 0.00 51 1084.4
20260505014327 19 112 0.0 0.0 0.00 0.00 0.00 50 847.5
20260505013831 19 112 0.0 0.0 0.00 0.00 0.00 50 820.7
20260505013311 19 111 0.0 0.0 0.00 0.00 0.00 50 479.8
20260505013022 18 111 0.0 0.0 0.00 0.00 0.00 51 1084.4
20260505012819 19 112 0.0 0.0 0.00 0.00 0.00 50 901.4
20260505012337 18 111 0.0 0.0 0.00 0.00 0.00 50
20260505011814 19 112 0.0 0.0 0.00 0.00 0.00 50
20260505011529 18 111 0.0 0.0 0.00 0.00 0.00 50 1084.4
20260505011322 19 111 0.0 0.0 0.00 0.00 0.00 50
20260505010830 19 112 0.0 0.0 0.00 0.00 0.00 50
20260505010322 20 112 0.0 0.0 0.00 0.00 0.00 50 1030.0
20260505010031 19 112 0.0 0.0 0.00 0.00 0.00 49 1084.4
20260505005849 20 111 0.0 0.0 0.00 0.00 0.00 48 389.2
20260505005325 20 111 0.0 0.0 0.00 0.00 0.00 48 884.0
20260505004830 20 112 0.0 6.4 0.00 0.00 0.00 48 670.6
20260505004524 20 112 0.0 6.4 0.00 0.00 0.00 47 1084.4
20260505004318 20 112 1.6 6.4 0.00 0.00 0.00 47 567.3
20260505003844 20 117 0.0 0.0 0.00 0.00 0.00 47
20260505003339 20 117 0.0 0.0 0.00 0.00 0.00 46 910.7
20260505003050 20 117 0.0 4.8 0.00 0.00 0.00 46 1084.4
20260505002846 21 117 0.0 4.8 0.00 0.00 0.00 46 370.6
20260505002318 21 117 0.0 1.6 0.00 0.00 0.00 45 299.3
20260505001814 21 117 0.0 0.0 0.00 0.00 0.00 45
20260505001550 21 117 0.0 0.0 0.00 0.00 0.00 45 1084.4
20260505001340 21 117 0.0 0.0 0.00 0.00 0.00 45 975.7
20260505000822 22 117 0.0 4.8 0.00 0.00 0.00 44
20260505000329 22 117 0.0 4.8 0.00 0.00 0.00 44
20260505000053 22 118 0.0 0.0 0.00 0.00 0.00 43 1084.4
20260504235832 22 118 0.0 3.2 0.00 0.00 0.00 43
20260504235314 22 118 0.0 6.4 0.00 0.00 0.00 43
20260504234830 22 117 1.6 6.4 0.00 0.00 0.00 42
20260504234548 22 117 0.0 6.4 0.00 0.00 0.00 42 1084.4
20260504234336 22 118 0.0 14.5 0.00 0.00 0.00 42 95.8
20260504233827 23 118 1.6 14.5 0.00 0.00 0.00 42 215.5
20260504233316 23 98 4.8 14.5 0.00 0.00 0.00 42
20260504233047 23 138 1.6 16.1 0.00 0.00 0.00 42 1084.4
20260504232823 23 144 1.6 16.1 0.00 0.00 0.00 42
20260504232329 23 146 4.8 16.1 0.00 0.00 0.00 41
20260504231826 23 118 4.8 14.5 0.00 0.00 0.00 42
20260504231515 23 107 1.6 8.0 0.00 0.00 0.00 42 1084.4
20260504231311 23 107 1.6 8.0 0.00 0.00 0.00 42
20260504230840 23 105 1.6 12.9 0.00 0.00 0.00 42
20260504230337 23 98 1.6 12.9 0.00 0.00 0.00 41
20260504230018 23 105 0.0 11.3 0.00 0.00 0.00 42 1084.4
20260504225822 23 106 1.6 11.3 0.00 0.00 0.00 42
20260504225324 24 105 1.6 9.7 0.00 0.00 0.00 42 951.2
20260504224835 24 105 3.2 12.9 0.00 0.00 0.00 41 1037.0
20260504224557 23 106 1.6 19.3 0.00 0.00 0.00 41 1084.4
20260504224404 24 105 4.8 19.3 0.00 0.00 0.00 40 534.8
20260504223818 24 111 6.4 19.3 0.00 0.00 0.00 41 87.0
20260504223331 24 89 8.0 19.3 0.00 0.00 0.00 39 708.3
20260504223058 24 118 4.8 14.5 0.00 0.00 0.00 40 1084.4
20260504222820 24 113 3.2 17.7 0.00 0.00 0.00 40 755.2
20260504222329 24 104 3.2 20.9 0.00 0.00 0.00 41 116.8
20260504221814 25 128 4.8 20.9 0.00 0.00 0.00 39
20260504221549 24 146 6.4 20.9 0.00 0.00 0.00 38 1084.4
20260504221316 25 148 8.0 14.5 0.00 0.00 0.00 38 455.8
20260504220830 25 130 6.4 14.5 0.00 0.00 0.00 39
20260504220317 25 127 6.4 16.1 0.00 0.00 0.00 37
20260504220046 25 146 4.8 16.1 0.00 0.00 0.00 37 1084.4
20260504215837 25 153 4.8 16.1 0.00 0.00 0.00 38 785.0
20260504215403 25 78 6.4 16.1 0.00 0.00 0.00 37
20260504214848 25 110 3.2 17.7 0.00 0.00 0.00 38 -108.1
20260504214614 25 117 4.8 17.7 0.00 0.00 0.00 38 1084.4
20260504214312 25 86 8.0 17.7 0.00 0.00 0.00 37
20260504213841 25 102 3.2 17.7 0.00 0.00 0.00 40
20260504213352 25 105 4.8 17.7 0.00 0.00 0.00 38
20260504213034 25 90 3.2 11.3 0.00 0.00 0.00 39 1084.4
20260504212819 25 99 1.6 11.3 0.00 0.00 0.00 39
20260504212316 25 106 1.6 16.1 0.00 0.00 0.00 39
20260504211819 25 128 6.4 16.1 0.00 0.00 0.00 38 1091.1
20260504211527 25 121 6.4 16.1 0.00 0.00 0.00 37 1084.4
20260504211325 25 120 6.4 17.7 0.00 0.00 0.00 38
20260504210827 25 76 8.0 17.7 0.00 0.00 0.00 38
20260504210337 25 98 8.0 16.1 0.00 0.00 0.00 38 423.3
20260504210002 25 90 0.0 12.9 0.00 0.00 0.00 39 1084.4
20260504205831 25 91 6.4 14.5 0.00 0.00 0.00 40 889.4
20260504205311 25 126 4.8 14.5 0.00 0.00 0.00 39
20260504204838 25 153 4.8 20.9 0.00 0.00 0.00 40
20260504204606 25 79 3.2 20.9 0.00 0.00 0.00 41 1084.4
20260504204318 25 74 8.0 20.9 0.00 0.00 0.00 39 564.9
20260504203844 25 71 8.0 16.1 0.00 0.00 0.00 38 607.7
20260504203329 25 78 4.8 17.7 0.00 0.00 0.00 39 700.6
20260504203035 25 71 8.0 22.5 0.00 0.00 0.00 40 1084.4
20260504202821 25 85 9.7 22.5 0.00 0.00 0.00 39 1061.0
20260504202346 26 90 11.3 22.5 0.00 0.00 0.00 38
20260504201830 26 108 3.2 16.1 0.00 0.00 0.00 39
20260504201520 25 94 4.8 14.5 0.00 0.00 0.00 41 1084.4
20260504201316 26 96 3.2 16.1 0.00 0.00 0.00 39
20260504200822 26 117 6.4 16.1 0.00 0.00 0.00 38
20260504200329 26 124 4.8 12.9 0.00 0.00 0.00 40 194.3
20260504200111 25 140 1.6 14.5 0.00 0.00 0.00 43 1084.4
20260504195824 26 75 1.6 14.5 0.00 0.00 0.00 39
20260504195315 25 74 4.8 16.1 0.00 0.00 0.00 40 1045.3
20260504194838 25 74 4.8 16.1 0.00 0.00 0.00 40
20260504194614 25 72 3.2 16.1 0.00 0.00 0.00 42 1084.4
20260504194331 25 69 3.2 14.5 0.00 0.00 0.00 41 763.0
20260504193814 25 99 6.4 14.5 0.00 0.00 0.00 40
20260504193324 26 95 1.6 12.9 0.00 0.00 0.00 40 34.1
20260504193052 25 95 1.6 17.7 0.00 0.00 0.00 42 902.2
20260504192849 26 95 1.6 17.7 0.00 0.00 0.00 39
20260504192336 26 115 8.0 17.7 0.00 0.00 0.00 40
20260504191827 26 115 4.8 17.7 0.00 0.00 0.00 39 1006.3
20260504191523 25 117 3.2 16.1 0.00 0.00 0.00 41 902.2
20260504191333 26 110 6.4 16.1 0.00 0.00 0.00 41 265.6
20260504190814 25 165 0.0 14.5 0.00 0.00 0.00 45
20260504190319 25 152 3.2 9.7 0.00 0.00 0.00 39
20260504190056 25 159 1.6 9.7 0.00 0.00 0.00 42 902.2
20260504185827 25 162 0.0 8.0 0.00 0.00 0.00 41
20260504185316 25 167 4.8 12.9 0.00 0.00 0.00 39
20260504184821 25 168 8.0 16.1 0.00 0.00 0.00 43 983.5
20260504184533 25 165 9.7 16.1 0.00 0.00 0.00 41 902.2
20260504184345 25 163 4.8 14.5 0.00 0.00 0.00 40
20260504183812 25 163 1.6 14.5 0.00 0.00 0.00 41
20260504183339 24 164 6.4 14.5 0.00 0.00 0.00 39 286.4
20260504183002 24 158 4.8 16.1 0.00 0.00 0.00 41 902.2
20260504182832 25 129 6.4 16.1 0.00 0.00 0.00 40 851.5
20260504182330 24 161 3.2 11.3 0.00 0.00 0.00 41
20260504181814 24 148 0.0 8.0 0.00 0.00 0.00 41 946.4
20260504181551 23 150 0.0 14.5 0.00 0.00 0.00 44 902.2
20260504181342 24 150 6.4 16.1 0.00 0.00 0.00 42
20260504180822 24 159 9.7 16.1 0.00 0.00 0.00 44 630.4
20260504180327 23 190 0.0 3.2 0.00 0.00 0.00 44
20260504180035 23 190 0.0 8.0 0.00 0.00 0.00 43 902.2
20260504175833 23 190 0.0 9.7 0.00 0.00 0.00 44
20260504175344 23 190 1.6 11.3 0.00 0.00 0.00 45 735.4
20260504174816 23 194 0.0 9.7 0.00 0.00 0.00 44
20260504174530 23 194 1.6 9.7 0.00 0.00 0.00 43 902.2
20260504174321 23 194 3.2 9.7 0.00 0.00 0.00 43 732.3
20260504173838 23 187 1.6 6.4 0.00 0.00 0.00 42
20260504173322 23 187 0.0 9.7 0.00 0.00 0.00 44
20260504173056 22 186 0.0 11.3 0.00 0.00 0.00 45 902.2
20260504172843 23 186 0.0 11.3 0.00 0.00 0.00 42
20260504172321 23 188 4.8 11.3 0.00 0.00 0.00 43 330.1
20260504171830 23 126 0.0 14.5 0.00 0.00 0.00 45
20260504171534 22 125 0.0 14.5 0.00 0.00 0.00 42 902.2
20260504171337 23 125 3.2 14.5 0.00 0.00 0.00 43 376.4
20260504170822 23 118 3.2 11.3 0.00 0.00 0.00 44
20260504170336 23 136 4.8 9.7 0.00 0.00 0.00 42
20260504170104 22 136 3.2 9.7 0.00 0.00 0.00 44 902.2
20260504160327 22 240 3.2 8.0 0.00 0.00 0.00 45
20260504150815 20 185 4.8 9.7 0.00 0.00 0.00 45
20260504150317 20 171 4.8 11.3 0.00 0.00 0.00 45 843.4
20260504141321 17 156 4.8 9.7 0.00 0.00 0.00 59 810.4
20260504140828 17 152 6.4 8.0 0.00 0.00 0.00 60
20260504140351 17 119 1.6 8.0 0.00 0.00 0.00 62 203.5
20260504130338 12 35 0.0 0.0 0.00 0.00 0.00 76 571.2
20260504130104 11 125 0.0 0.0 0.00 0.00 0.00 78 902.2
20260504120119 5 125 0.0 0.0 0.00 0.00 0.00 95 902.2
20260504110311 3 124 0.0 0.0 0.00 0.00 0.00 93 971.8
20260504100343 3 123 0.0 0.0 0.00 0.00 0.00 93
20260504081827 5 124 0.0 0.0 0.00 0.00 0.00 93 652.9
20260504081512 4 124 0.0 0.0 0.00 0.00 0.00 93 1016.8
20260504081315 5 124 0.0 0.0 0.00 0.00 0.00 93
20260504080833 5 124 0.0 0.0 0.00 0.00 0.00 93 327.2
20260504080322 5 124 0.0 0.0 0.00 0.00 0.00 93 1093.9
20260504070330 5 124 0.0 0.0 0.00 0.00 0.00 92